Regional Weather Roundup
Issued by NWS

Home | Current Version | Previous Version | Graphics & Text | Print | Product List | Glossary On
Versions: 1 2 3 4 5 6 7 8 9 10 11 12 13 14 15 16 17 18 19 20 21 22 23 24 25 26 27 28 29 30 31 32 33 34 35 36 37 38 39 40 41 42 43 44 45 46 47 48 49
000
ASUS45 KBOU 272107
RWRCO

WEATHER ROUNDUP FOR COLORADO
NATIONAL WEATHER SERVICE DENVER/BOULDER CO
200 PM MST FRI FEB 27 2015

NOTE: "FAIR" INDICATES FEW OR NO CLOUDS BELOW 12000 FEET WITH NO
SIGNIFICANT WEATHER AND/OR OBSTRUCTIONS TO VISIBILITY.

COZ001>005-013-030-031-272200-
...NORTHWEST COLORADO...

CITY           SKY/WX    TMP DP  RH WIND       PRES   REMARKS
CRAIG          SUNNY     32  17  54 VRB5      29.78F WCI  27
HAYDEN         SUNNY     28   9  43 W7        29.77F WCI  21
MEEKER         MOSUNNY   28  19  69 CALM      29.77F
MOUNT WERNER   NOT AVBL
STEAMBOAT SPGS SUNNY     28   8  42 CALM      29.76F
WALDEN         SUNNY     19   9  63 CALM      29.71F
$$

COZ006>008-011-272200-
...WEST CENTRAL VALLEYS...

CITY           SKY/WX    TMP DP  RH WIND       PRES   REMARKS
GRAND JUNCTION PTSUNNY   41  23  48 MISG      29.76F
MONTROSE       CLOUDY    32  27  81 NW12      29.78F WCI  23
EAGLE          CLOUDY    34  18  51 NW8       29.74F WCI  27
RIFLE          PTSUNNY   38  17  42 S9        29.74F
DELTA          CLOUDY    37  32  82 CALM      29.78F
NUCLA          PTSUNNY   36  21  55 S12       29.80F
$$

COZ017>023-064>068-272200-
...SOUTHWEST COLORADO...

CITY           SKY/WX    TMP DP  RH WIND       PRES   REMARKS
DURANGO        LGT SNOW  29  25  85 SE3       29.79F VSB 3/4
CORTEZ         LGT SNOW  32  30  92 SW3       29.80F FOG
PAGOSA SPRINGS CLOUDY    30  24  78 SW6       29.78F HAZE    WCI  24
TELLURIDE      CLOUDY    28   9  46 NW3       29.73F
WOLF CREEK PAS SNOW      10   9  92 S16G26    29.73S VSB 1/2 WCI  -7
$$

COZ009-010-012-014-032>034-037-058>063-272200-
...CENTRAL COLORADO...

CITY           SKY/WX    TMP DP  RH WIND       PRES   REMARKS
ASPEN          LGT SNOW  26  18  71 N7        29.70F WCI  18
BUENA VISTA    CLOUDY    16   8  71 CALM      29.74F
COPPER MTN     LGT SNOW  14   7  73 W16       29.63F VSB 1   WCI  -2
BERTHOUD PASS  SNOW       5   0  78 NW15G29   29.62S VSB 1/2 WCI -13
COTTONWOOD PAS CLOUDY    21  14  73 SE3       29.67F
GUNNISON       MOSUNNY   32  14  47 W16       29.73F WCI  21
KREMMLING      CLOUDY    30  12  47 CALM      29.74F
LEADVILLE      LGT SNOW  15  11  83 S8        29.65S FOG     WCI   4
SALIDA         PTSUNNY   21  10  60 CALM      29.82F
SUNLIGHT       LGT SNOW  19  18  93 SW3         N/A
WILKERSON PASS PTSUNNY   18  10  73 SW8       29.68F WCI   7
$$

COZ069>075-272200-
...SAN LUIS VALLEY/SANGRE DE CRISTO MOUNTAINS...

CITY           SKY/WX    TMP DP  RH WIND       PRES   REMARKS
ALAMOSA        SUNNY     28  17  63 S13       29.76F WCI  17
LA VETA PASS   LGT SNOW  21  16  79 SW7G17    29.71F WCI  13
SAGUACHE       CLOUDY    27  18  69 E7        29.76F HAZE    WCI  19
$$

COZ035-036-038>040-272200-
...NORTHERN COLORADO FRONT RANGE...

CITY           SKY/WX    TMP DP  RH WIND       PRES   REMARKS
DENVER INTL AP MOSUNNY   17   5  59 S3        29.90F
DMNS CITY PARK   N/A     18   8  64 N8        29.90F WCI   8
AURORA         MOSUNNY   17   6  62 N8        29.88F WCI   6
FRONT RANGE AP MOSUNNY   19   9  63 SE15      29.90  WCI   5
ERIE MUNI ARPT SUNNY     16   8  70 CALM      29.93F
BOULDER MUN AP LGT SNOW  18  10  73 N5        29.92F WCI  11
CENTENNIAL     MOSUNNY   18   4  54 CALM      29.86F
BROOMFIELD     PTSUNNY   18   9  68 NW6       29.90F WCI   9
FORT COLLINS   MOSUNNY   18  10  73 CALM      29.96F
LONGMONT       FLURRIES  31   9  39 NW3       29.96F
$$

COZ041-046-047-076>085-087-088-272200-
...PIKES PEAK/PALMER DIVIDE AND SOUTHERN FOOTHILLS...

CITY           SKY/WX    TMP DP  RH WIND       PRES   REMARKS
COLO. SPRINGS  LGT SNOW  10   4  76 SE6       29.90F FOG     WCI   0
A. F. ACADEMY  CLOUDY    10   3  71 SE8       29.85F WCI  -2
ELLICOTT       NOT AVBL
FALCON         LGT SNOW  10   2  70 S10       29.85F WCI  -4
FORT CARSON    SNOW      12   6  75 E8        29.90F VSB 1/2 WCI   0
LIMON          LGT SNOW   9   5  84 SE22      29.97F FOG     WCI -11
MONUMENT HILL  SUNNY     14   5  67 S13       29.79F WCI   0
TRINIDAD       SUNNY     19   7  59 E3        29.90F
$$

COZ042>045-048>051-090-091-272200-
...NORTHEAST COLORADO...

CITY           SKY/WX    TMP DP  RH WIND       PRES   REMARKS
GREELEY ARPT   CLOUDY    23   7  50 S10       29.95F WCI  12
AKRON          CLOUDY    15   8  73 S23G30    30.02F WCI  -3
BURLINGTON     LGT SNOW  14   7  73 S24       30.11F WCI  -5
WRAY           CLOUDY    20  11  66 SE15G21   30.15F WCI   6
STERLING       PTSUNNY   21  10  63 S20G25    30.06F WCI   6
HOLYOKE        NOT AVBL
FORT MORGAN    CLOUDY    19   8  63 S21       30.01F WCI   2
$$

COZ086-089-092>099-272200-
...SOUTHEAST COLORADO...

CITY           SKY/WX    TMP DP  RH WIND       PRES   REMARKS
PUEBLO         MOSUNNY   17   9  70 E8        29.98F WCI   7
LA JUNTA       SUNNY     20  10  65 SE18      30.03F WCI   5
LAMAR          LGT SNOW  17   9  70 S18G28    30.12F WCI   1
SPRINGFIELD      N/A     11   7  84 S23       30.08F WCI  -9
$$


USA.gov is the U.S. government's official web portal to all federal, state and local government web resources and services.